| time (UTC) | temp C | wind direction | speed KPH | gust KPH | rain 1hr cm | rain 24hr cm | rain mn cm | humidity % | barometer mb |
| 20260508133015 | 16 | 79 | 0.0 | 3.2 | 0.00 | 0.00 | 0.00 | 84 | 1014.2 |
| 20260508131512 | 16 | 78 | 0.0 | 0.0 | 0.00 | 0.00 | 0.00 | 85 | 1014.7 |
| 20260508130011 | 16 | 78 | 0.0 | 0.0 | 0.00 | 0.00 | 0.00 | 84 | 1014.5 |
| 20260508124514 | 16 | 78 | 0.0 | 3.2 | 0.00 | 0.00 | 0.00 | 83 | 1014.4 |
| 20260508123016 | 16 | 111 | 0.0 | 0.0 | 0.00 | 0.00 | 0.00 | 84 | 1014.6 |
| 20260508121516 | 16 | 111 | 0.0 | 0.0 | 0.00 | 0.00 | 0.00 | 84 | 1014.7 |
| 20260508120017 | 16 | 111 | 0.0 | 0.0 | 0.00 | 0.00 | 0.00 | 84 | 1014.7 |
| 20260508114517 | 16 | 327 | 0.0 | 3.2 | 0.00 | 0.00 | 0.00 | 84 | 1015.2 |
| 20260508113019 | 16 | 242 | 0.0 | 1.6 | 0.00 | 0.00 | 0.00 | 84 | 1015.4 |
| 20260508111520 | 16 | 49 | 0.0 | 3.2 | 0.00 | 0.00 | 0.00 | 84 | 1015.2 |
| 20260508110020 | 16 | 58 | 0.0 | 3.2 | 0.00 | 0.00 | 0.00 | 84 | 1014.8 |
| 20260508104522 | 16 | 306 | 0.0 | 3.2 | 0.00 | 0.00 | 0.00 | 84 | 1014.8 |
| 20260508103020 | 15 | 287 | 0.0 | 3.2 | 0.00 | 0.00 | 0.00 | 85 | 1014.6 |
| 20260508101521 | 15 | 326 | 0.0 | 3.2 | 0.00 | 0.00 | 0.00 | 85 | 1015.3 |
| 20260508100024 | 16 | 266 | 0.0 | 3.2 | 0.00 | 0.00 | 0.00 | 84 | 1015.4 |
| 20260508094521 | 16 | 345 | 0.0 | 3.2 | 0.00 | 0.00 | 0.00 | 84 | 1015.5 |
| 20260508093013 | 16 | 9 | 0.0 | 3.2 | 0.00 | 0.00 | 0.00 | 83 | 1015.4 |
| 20260508091521 | 16 | 37 | 0.0 | 1.6 | 0.00 | 0.00 | 0.00 | 83 | 1015.1 |
| 20260508090024 | 16 | 78 | 0.0 | 0.0 | 0.00 | 0.00 | 0.00 | 82 | 1014.9 |
| 20260508084524 | 16 | 78 | 0.0 | 3.2 | 0.00 | 0.00 | 0.00 | 83 | 1014.7 |
| 20260508083003 | 16 | 25 | 0.0 | 0.0 | 0.00 | 0.00 | 0.00 | 83 | 1014.9 |
| 20260508081512 | 15 | 25 | 0.0 | 0.0 | 0.00 | 0.00 | 0.00 | 83 | 1015.1 |
| 20260508080018 | 15 | 25 | 0.0 | 3.2 | 0.00 | 0.00 | 0.00 | 83 | 1014.8 |
| 20260508074523 | 15 | 112 | 0.0 | 0.0 | 0.00 | 0.00 | 0.00 | 85 | 1014.6 |
| 20260508073023 | 15 | 112 | 0.0 | 3.2 | 0.00 | 0.00 | 0.00 | 88 | 1014.9 |
| 20260508071517 | 15 | 316 | 0.0 | 0.0 | 0.00 | 0.00 | 0.00 | 89 | 1014.7 |
| 20260508070014 | 14 | 316 | 0.0 | 0.0 | 0.00 | 0.00 | 0.00 | 89 | 1015.5 |
| 20260508064520 | 14 | 316 | 0.0 | 0.0 | 0.00 | 0.00 | 0.00 | 89 | 1015.4 |
| 20260508063025 | 14 | 316 | 0.0 | 0.0 | 0.00 | 0.00 | 0.00 | 89 | 1015.8 |
| 20260508061529 | 14 | 316 | 0.0 | 3.2 | 0.00 | 0.00 | 0.00 | 89 | 1016.2 |
| 20260508060013 | 14 | 316 | 0.0 | 0.0 | 0.00 | 0.00 | 0.00 | 88 | 1015.6 |
| 20260508054521 | 15 | 316 | 0.0 | 0.0 | 0.00 | 0.00 | 0.00 | 87 | 1015.8 |
| 20260508053022 | 15 | 316 | 0.0 | 1.6 | 0.00 | 0.00 | 0.00 | 87 | 1015.9 |
| 20260508051530 | 14 | 321 | 0.0 | 3.2 | 0.00 | 0.00 | 0.00 | 87 | 1015.5 |
| 20260508050028 | 15 | 279 | 0.0 | 0.0 | 0.00 | 0.00 | 0.00 | 87 | 1015.8 |
| 20260508044516 | 15 | 306 | 0.0 | 3.2 | 0.00 | 0.00 | 0.00 | 86 | 1016.4 |
| 20260508043021 | 15 | 304 | 0.0 | 0.0 | 0.00 | 0.00 | 0.00 | 86 | 1015.3 |
| 20260508041525 | 15 | 304 | 0.0 | 3.2 | 0.00 | 0.00 | 0.00 | 86 | 1016.2 |
| 20260508040025 | 15 | 298 | 0.0 | 0.0 | 0.00 | 0.00 | 0.00 | 85 | 1016.0 |
| 20260508034535 | 15 | 298 | 0.0 | 0.0 | 0.00 | 0.00 | 0.00 | 84 | 1016.3 |
| 20260508033017 | 15 | 298 | 0.0 | 1.6 | 0.00 | 0.00 | 0.00 | 83 | 1016.6 |
| 20260508031521 | 15 | 82 | 0.0 | 3.2 | 0.00 | 0.00 | 0.00 | 82 | 1016.8 |
| 20260508030025 | 15 | 82 | 0.0 | 0.0 | 0.00 | 0.00 | 0.00 | 82 | 1015.7 |
| 20260508024534 | 16 | 82 | 0.0 | 1.6 | 0.00 | 0.00 | 0.00 | 80 | 1015.4 |
| 20260508023032 | 16 | 67 | 0.0 | 3.2 | 0.00 | 0.00 | 0.00 | 79 | 1015.0 |
| 20260508021521 | 16 | 62 | 0.0 | 3.2 | 0.00 | 0.00 | 0.00 | 80 | 1014.3 |
| 20260508020003 | 16 | 74 | 0.0 | 4.8 | 0.00 | 0.00 | 0.00 | 80 | 1014.6 |
| 20260508014504 | 16 | 73 | 0.0 | 3.2 | 0.00 | 0.00 | 0.00 | 78 | 1014.7 |
| 20260508013011 | 16 | 78 | 0.0 | 3.2 | 0.00 | 0.00 | 0.00 | 79 | 1014.5 |
| 20260508011504 | 16 | 99 | 0.0 | 3.2 | 0.00 | 0.00 | 0.00 | 79 | 1014.5 |
| 20260508010007 | 16 | 78 | 0.0 | 4.8 | 0.00 | 0.00 | 0.00 | 77 | 1014.9 |
| 20260508004508 | 16 | 51 | 0.0 | 3.2 | 0.00 | 0.00 | 0.00 | 79 | 1015.1 |
| 20260508003011 | 17 | 360 | 0.0 | 3.2 | 0.00 | 0.00 | 0.00 | 74 | 1015.2 |
| 20260508001514 | 17 | 334 | 0.0 | 3.2 | 0.00 | 0.00 | 0.00 | 77 | 1015.4 |
| 20260508000008 | 17 | 331 | 0.0 | 3.2 | 0.00 | 0.00 | 0.00 | 78 | 1015.9 |
| 20260507234509 | 17 | 51 | 0.0 | 3.2 | 0.00 | 0.00 | 0.00 | 77 | 1015.9 |
| 20260507233008 | 17 | 11 | 0.0 | 3.2 | 0.00 | 0.00 | 0.00 | 73 | 1016.1 |
| 20260507231524 | 17 | 93 | 0.0 | 3.2 | 0.00 | 0.00 | 0.00 | 75 | 1015.5 |
| 20260507230019 | 18 | 42 | 0.0 | 6.4 | 0.00 | 0.00 | 0.00 | 73 | 1016.1 |
| 20260507224507 | 18 | 101 | 0.0 | 6.4 | 0.00 | 0.00 | 0.00 | 74 | 1015.6 |
| 20260507223005 | 18 | 340 | 1.6 | 9.7 | 0.00 | 0.00 | 0.00 | 72 | 1016.3 |
| 20260507221514 | 18 | 100 | 0.0 | 12.9 | 0.00 | 0.00 | 0.00 | 73 | 1016.4 |
| 20260507220022 | 18 | 202 | 0.0 | 12.9 | 0.00 | 0.00 | 0.00 | 69 | 1016.4 |
| 20260507214521 | 18 | 73 | 1.6 | 8.0 | 0.00 | 0.00 | 0.00 | 70 | 1017.1 |
| 20260507213004 | 19 | 36 | 3.2 | 8.0 | 0.00 | 0.00 | 0.00 | 71 | 1017.2 |
| 20260507211511 | 18 | 169 | 1.6 | 6.4 | 0.00 | 0.00 | 0.00 | 75 | 1016.1 |
| 20260507210016 | 17 | 12 | 0.0 | 8.0 | 0.00 | 0.00 | 0.00 | 77 | 1016.8 |
| 20260507204519 | 17 | 65 | 0.0 | 6.4 | 0.00 | 0.00 | 0.00 | 74 | 1017.4 |
| 20260507203025 | 17 | 234 | 0.0 | 9.7 | 0.00 | 0.00 | 0.00 | 76 | 1017.5 |
| 20260507201507 | 17 | 49 | 0.0 | 3.2 | 0.00 | 0.00 | 0.00 | 74 | 1017.8 |
| 20260507200012 | 17 | 360 | 1.6 | 3.2 | 0.00 | 0.00 | 0.00 | 74 | 1017.5 |
| 20260507194518 | 17 | 76 | 0.0 | 8.0 | 0.00 | 0.00 | 0.00 | 74 | 1018.3 |
| 20260507193021 | 17 | 86 | 0.0 | 9.7 | 0.00 | 0.00 | 0.00 | 74 | 1018.1 |
| 20260507191529 | 17 | 67 | 1.6 | 6.4 | 0.00 | 0.00 | 0.00 | 74 | 1018.3 |
| 20260507190018 | 16 | 165 | 0.0 | 6.4 | 0.00 | 0.00 | 0.00 | 75 | 1018.4 |
| 20260507184529 | 16 | 135 | 1.6 | 9.7 | 0.00 | 0.00 | 0.00 | 75 | 1018.0 |
| 20260507183036 | 16 | 22 | 0.0 | 9.7 | 0.00 | 0.00 | 0.00 | 76 | 1018.2 |
| 20260507181524 | 16 | 340 | 0.0 | 6.4 | 0.00 | 0.00 | 0.00 | 77 | 1018.5 |
| 20260507180037 | 16 | 63 | 0.0 | 8.0 | 0.00 | 0.00 | 0.00 | 74 | 1018.7 |
| 20260507174516 | 17 | 105 | 3.2 | 8.0 | 0.00 | 0.00 | 0.00 | 75 | 1018.2 |
| 20260507173017 | 16 | 360 | 1.6 | 8.0 | 0.00 | 0.00 | 0.00 | 78 | 1018.7 |
| 20260507171521 | 15 | 78 | 1.6 | 9.7 | 0.00 | 0.00 | 0.00 | 80 | 1018.3 |
| 20260507170010 | 15 | 236 | 0.0 | 8.0 | 0.00 | 0.00 | 0.00 | 82 | 1018.2 |
| 20260507164510 | 15 | 104 | 1.6 | 14.5 | 0.00 | 0.00 | 0.00 | 82 | 1018.7 |
| 20260507163014 | 15 | 105 | 1.6 | 9.7 | 0.00 | 0.00 | 0.00 | 82 | 1019.4 |
| 20260507161533 | 14 | 327 | 3.2 | 9.7 | 0.00 | 0.00 | 0.00 | 81 | 1020.6 |
| 20260507160010 | 14 | 60 | 0.0 | 12.9 | 0.00 | 0.00 | 0.00 | 81 | 1019.8 |
| 20260507154508 | 14 | 59 | 0.0 | 12.9 | 0.00 | 0.00 | 0.00 | 81 | 1019.8 |
| 20260507153015 | 14 | 73 | 1.6 | 6.4 | 0.00 | 0.00 | 0.00 | 82 | 1019.3 |
| 20260507151534 | 14 | 19 | 1.6 | 6.4 | 0.00 | 0.00 | 0.00 | 83 | 1020.2 |
| 20260507150024 | 14 | 73 | 0.0 | 6.4 | 0.00 | 0.00 | 0.00 | 84 | 1019.7 |
| 20260507144506 | 14 | 57 | 1.6 | 6.4 | 0.00 | 0.00 | 0.00 | 85 | 1019.8 |
| 20260507143023 | 14 | 360 | 1.6 | 6.4 | 0.00 | 0.00 | 0.00 | 86 | 1019.3 |
| 20260507141518 | 14 | 292 | 1.6 | 12.9 | 0.00 | 0.00 | 0.00 | 87 | 1019.3 |
| 20260507140022 | 14 | 169 | 0.0 | 16.1 | 0.00 | 0.00 | 0.00 | 87 | 1019.1 |
| 20260507134535 | 14 | 352 | 1.6 | 14.5 | 0.00 | 0.00 | 0.00 | 88 | 1018.7 |